FW0530 Weather Reports


time (UTC)temp
F
wind
direction
speed
knots
gust
knots
rain 1hr
in
rain 24hr
in
rain mn
in
humidity
%
barometer
mb
20260507160037 59 348 3.5 9.6 0.00 0.01 0.00 49 1009.3
20260507154532 59 5 2.6 8.7 0.00 0.01 0.00 52 1009.6
20260507153034 58 342 4.3 12.2 0.00 0.01 0.00 49 1009.5
20260507151529 58 355 3.5 10.4 0.00 0.01 0.00 50 1009.9
20260507150026 56 313 2.6 8.7 0.00 0.01 0.00 52 1010.1
20260507144529 56 350 1.7 8.7 0.00 0.08 0.00 52 1010.2
20260507143022 55 295 1.7 8.7 0.00 0.08 0.00 55 1010.4
20260507141521 55 276 2.6 9.6 0.00 0.08 0.00 51 1010.4
20260507140018 55 286 3.5 8.7 0.00 0.08 0.00 53 1010.6
20260507134516 55 311 2.6 8.7 0.00 0.14 0.00 55 1010.9
20260507133015 54 264 1.7 7.0 0.00 0.14 0.00 57 1011.1
20260507131523 54 355 4.3 8.7 0.00 0.14 0.00 61 1011.1
20260507130012 53 288 4.3 7.8 0.00 0.14 0.00 58 1011.0
20260507124510 53 301 2.6 7.8 0.00 0.17 0.00 61 1011.0
20260507123009 52 308 4.3 7.8 0.00 0.17 0.00 64 1010.8
20260507121506 52 292 1.7 4.3 0.00 0.17 0.00 66 1010.7
20260507120006 51 277 2.6 6.1 0.00 0.18 0.00 66 1010.8
20260507114505 51 315 1.7 4.3 0.00 0.18 0.00 68 1010.8
20260507113005 51 275 1.7 7.0 0.00 0.18 0.00 68 1010.9
20260507111507 50 297 0.0 0.0 0.00 0.18 0.00 72 1010.7
20260507110002 50 302 0.0 0.0 0.00 0.18 0.00 70 1010.5
20260507104600 50 300 0.0 0.0 0.00 0.18 0.00 74 1010.2
20260507103111 50 292 0.0 0.0 0.00 0.18 0.00 72 1010.1
20260507101601 50 293 0.0 0.0 0.00 0.18 0.00 77 1009.8
20260507100111 50 307 0.0 1.7 0.00 0.18 0.00 75 1009.7
20260507094554 51 308 1.7 3.5 0.00 0.18 0.00 71 1009.8
20260507093057 51 309 0.9 4.3 0.00 0.18 0.00 67 1009.8
20260507091553 51 294 1.7 5.2 0.00 0.18 0.00 66 1009.8
20260507090050 51 348 0.0 5.2 0.00 0.18 0.00 67 1009.6
20260507084550 52 302 2.6 5.2 0.00 0.18 0.00 65 1009.4
20260507083058 52 317 2.6 5.2 0.00 0.18 0.00 66 1009.1
20260507081547 52 305 4.3 8.7 0.00 0.18 0.00 69 1009.2
20260507080042 52 311 3.5 8.7 0.00 0.18 0.00 73 1008.9
20260507074540 52 323 2.6 7.0 0.00 0.18 0.00 73 1008.9
20260507073050 52 302 1.7 3.5 0.00 0.18 0.00 75 1009.0
20260507071537 52 295 1.7 7.0 0.00 0.18 0.00 76 1009.0
20260507070040 52 297 2.6 4.3 0.00 0.18 0.00 78 1009.2
20260507064538 53 304 1.7 4.3 0.00 0.18 0.00 79 1009.3
20260507063033 54 323 0.9 4.3 0.00 0.18 0.00 77 1009.3
20260507061529 54 321 4.3 8.7 0.00 0.18 0.00 74 1009.3
20260507060027 54 293 0.9 7.0 0.00 0.18 0.00 75 1009.2
20260507054531 54 321 3.5 9.6 0.00 0.18 0.00 75 1009.0
20260507053024 55 306 2.6 7.8 0.00 0.18 0.00 76 1009.0
20260507051523 55 336 0.9 5.2 0.00 0.18 0.00 76 1008.9
20260507050031 55 309 3.5 8.7 0.00 0.18 0.00 77 1008.9
20260507044523 55 300 1.7 7.8 0.00 0.18 0.00 79 1008.8
20260507043018 55 311 1.7 4.3 0.00 0.18 0.00 79 1009.0
20260507041528 55 304 0.0 4.3 0.00 0.18 0.00 79 1008.8
20260507040015 55 304 1.7 6.1 0.00 0.18 0.00 79 1009.0
20260507034517 55 292 3.5 7.0 0.00 0.18 0.18 80 1008.9
20260507033011 55 281 0.9 9.6 0.00 0.18 0.18 80 1008.5
20260507031511 56 228 0.0 5.2 0.00 0.18 0.18 80 1008.6
20260507030007 56 269 2.6 7.8 0.00 0.18 0.18 80 1008.8
20260507024505 56 331 5.2 8.7 0.00 0.18 0.18 79 1008.7
20260507023001 57 351 2.6 9.6 0.00 0.18 0.18 80 1008.4
20260507021559 57 279 2.6 9.6 0.00 0.18 0.18 80 1008.3
20260507020110 57 314 4.3 8.7 0.00 0.18 0.18 80 1008.3
20260507014605 58 343 0.9 6.1 0.00 0.18 0.18 80 1007.9
20260507013055 58 294 3.5 7.8 0.00 0.18 0.18 79 1008.1
20260507011552 58 306 1.7 8.7 0.00 0.18 0.18 79 1008.1
20260507010048 59 277 3.5 9.6 0.00 0.18 0.18 79 1008.0
20260507004547 59 300 3.5 10.4 0.00 0.18 0.18 79 1008.2
20260507003044 60 321 3.5 8.7 0.00 0.18 0.18 79 1008.0
20260507001545 60 282 5.2 9.6 0.00 0.18 0.18 80 1007.7
20260507000041 60 290 0.0 3.5 0.00 0.18 0.18 82 1007.7
20260506234540 60 273 1.7 5.2 0.00 0.18 0.18 79 1007.3
20260506233035 61 286 1.7 3.5 0.00 0.18 0.18 81 1006.7
20260506231545 61 293 3.5 9.6 0.00 0.18 0.18 80 1006.5
20260506230045 62 298 1.7 9.6 0.00 0.18 0.18 81 1006.4
20260506224532 62 273 3.5 6.1 0.00 0.18 0.18 83 1006.2
20260506223045 63 293 2.6 7.0 0.00 0.18 0.18 85 1006.0
20260506221531 64 305 1.7 6.1 0.01 0.18 0.18 88 1005.9
20260506220032 65 163 0.0 2.6 0.01 0.18 0.18 89 1005.7
20260506214530 65 166 1.7 5.2 0.01 0.18 0.18 88 1005.7
20260506213031 65 196 2.6 5.2 0.01 0.18 0.18 87 1005.3
20260506211539 66 171 1.7 3.5 0.00 0.17 0.17 86 1005.3
20260506210034 67 172 1.7 4.3 0.00 0.17 0.17 85 1004.9
20260506204529 67 160 0.9 7.0 0.00 0.17 0.17 83 1004.7
20260506203030 68 182 2.6 9.6 0.00 0.17 0.17 84 1004.6
20260506201534 68 169 3.5 7.0 0.00 0.17 0.17 83 1004.5
20260506200027 69 161 4.3 7.0 0.00 0.17 0.17 83 1004.6
20260506194528 68 245 1.7 5.2 0.00 0.17 0.17 83 1004.6
20260506193022 67 210 3.5 7.0 0.00 0.17 0.17 85 1004.6
20260506191543 67 186 1.7 4.3 0.00 0.17 0.17 87 1004.6
20260506190020 66 192 0.0 5.2 0.00 0.17 0.17 88 1004.7
20260506184518 65 161 2.6 6.1 0.00 0.17 0.17 89 1005.0
20260506183027 65 167 4.3 7.8 0.00 0.17 0.17 87 1005.2
20260506181519 65 183 2.6 6.1 0.00 0.17 0.17 87 1005.2
20260506180016 65 177 4.3 8.7 0.00 0.17 0.17 86 1005.1
20260506174514 66 174 2.6 7.8 0.00 0.17 0.17 85 1005.0
20260506173012 65 173 2.6 7.8 0.00 0.17 0.17 86 1004.9
20260506171515 64 165 1.7 10.4 0.00 0.17 0.17 86 1004.9
20260506170013 64 189 2.6 11.3 0.00 0.17 0.17 87 1004.8
20260506164512 64 141 2.6 8.7 0.00 0.17 0.17 87 1004.9
20260506163013 64 141 5.2 10.4 0.00 0.17 0.17 87 1004.9
20260506161512 63 177 2.6 6.1 0.00 0.17 0.17 89 1004.9